EDT,Max TemperatureF,Mean TemperatureF,Min TemperatureF,Max Dew PointF,MeanDew PointF,Min DewpointF,Max Humidity, Mean Humidity, Min Humidity, Max Sea Level PressureIn, Mean Sea Level PressureIn, Min Sea Level PressureIn, Max VisibilityMiles, Mean VisibilityMiles, Min VisibilityMiles, Max Wind SpeedMPH, Mean Wind SpeedMPH, Max Gust SpeedMPH,PrecipitationIn, CloudCover, Events, WindDirDegrees
2013-3-1,61,54,46,43,33,29,86,59,31,30.04,29.98,29.93,10,10,10,15,8,22,0.00,0,,306
2013-3-2,56,45,33,34,28,21,89,58,26,30.06,30.02,29.96,10,10,10,28,9,33,0.00,1,,289
2013-3-3,51,40,28,29,26,23,82,59,36,30.17,30.08,30.04,10,10,10,18,7,24,0.00,3,,297
2013-3-4,65,46,27,33,26,17,92,56,20,30.25,30.18,30.13,10,10,10,10,3,21,0.00,0,,282
2013-3-5,76,56,36,58,46,32,86,61,36,30.20,30.07,29.95,10,10,10,21,8,26,0.00,2,,215
2013-3-6,66,54,41,61,34,21,87,54,20,30.17,30.04,29.93,10,10,7,23,12,31,0.02,2,Rain,298
2013-3-7,67,51,34,37,32,29,82,53,24,30.25,30.21,30.16,10,10,10,12,5,16,0.00,0,,318
2013-3-8,75,55,34,46,35,28,92,56,19,30.25,30.21,30.14,10,9,5,12,3,25,0.00,0,,358
2013-3-9,73,55,36,47,42,36,93,62,31,30.28,30.23,30.19,10,9,7,17,6,22,0.00,0,Fog,67
2013-3-10,79,63,46,54,49,45,93,63,32,30.22,30.15,30.10,10,10,10,21,7,26,0.00,0,,111
2013-3-11,78,65,52,57,53,51,93,67,40,30.13,30.02,29.91,10,10,10,17,6,23,T,2,,165
2013-3-12,69,59,49,64,58,43,100,73,45,30.06,29.92,29.84,10,8,2,13,7,32,0.30,6,Rain,246
2013-3-13,73,59,44,43,33,25,74,46,17,30.21,30.14,30.06,10,10,10,17,8,25,0.00,0,,317
2013-3-14,64,51,37,34,28,23,85,53,21,30.32,30.25,30.19,10,10,10,16,5,26,0.00,0,,338
2013-3-15,74,53,32,39,33,24,89,56,23,30.31,30.23,30.15,10,10,8,13,4,16,0.00,0,,297
2013-3-16,79,60,41,50,42,39,93,59,25,30.18,30.12,30.05,10,10,9,18,7,23,0.00,0,,255
2013-3-17,75,59,42,59,48,39,100,67,33,30.15,30.09,30.02,10,7,0,14,3,20,0.06,3,Fog-Rain,211
2013-3-18,78,68,57,64,59,55,100,75,50,30.06,30.00,29.89,10,6,0,17,6,22,0.02,5,Fog-Rain,220
2013-3-19,82,70,58,63,59,55,93,68,42,30.03,29.97,29.91,10,10,2,22,4,31,0.06,4,Rain,313
2013-3-20,74,62,49,59,54,49,93,70,46,30.00,29.93,29.86,10,7,0,22,5,26,0.11,4,Fog-Rain,360
2013-3-21,69,54,39,50,34,21,93,55,16,30.00,29.94,29.89,10,10,6,13,6,32,0.00,0,,301
2013-3-22,71,55,39,44,39,32,89,61,33,30.06,30.00,29.94,10,10,10,14,6,22,T,3,,78
2013-3-23,79,65,51,70,62,45,93,84,74,29.99,29.87,29.78,10,9,2,17,4,24,0.11,7,Rain-Thunderstorm,203
2013-3-24,83,74,64,72,67,61,97,76,55,29.79,29.66,29.59,10,8,2,24,13,35,0.30,6,Rain-Thunderstorm,210
2013-3-25,68,57,45,61,36,18,93,55,16,30.07,29.86,29.69,10,10,10,24,11,30,0.00,1,,293
2013-3-26,58,46,34,30,24,20,82,53,24,30.27,30.16,30.09,10,10,10,21,9,30,0.00,0,,309
2013-3-27,62,46,30,33,28,24,89,57,25,30.35,30.29,30.24,10,10,10,14,5,21,0.00,0,,313
2013-3-28,70,51,32,36,30,27,89,55,20,30.33,30.28,30.22,10,10,10,15,4,21,0.00,0,,336
2013-3-29,74,55,35,43,35,31,92,56,20,30.36,30.29,30.21,10,10,10,14,2,16,0.00,0,,350
2013-3-30,78,59,39,45,39,35,92,58,24,30.28,30.21,30.13,10,10,10,17,6,24,T,0,,240
2013-3-31,82,66,49,57,50,45,93,64,35,30.15,30.08,30.01,10,10,9,20,8,25,0.00,0,,229